[[{"header":{"parameterUnit":"m.s-1","parameterCategory":1,"la1":30.2991,"la2":30.254,"lo1":-89.0895,"lo2":-89.0444,"dy":0.0017,"dx":0.0017,"nx":28,"ny":28,"refTime":"2024-05-21T09:00:00:Z","depth":0,"parameterNumber":2,"parameterNumberName":"U-component_of_WINDS"},"data":[0,0,0,0,0,0,0,0,0,0,0,0,0,0,0,0,0,0,0,0,0,0,0,0,0,0,0,0,0,0,0,0,0,0,0,0,0,0,0,0,0,0,0,0,0,0,0,0,0,0,0,0,0,0,0,0,0,0,-3.3694,-3.3694,0,-3.3708,-3.3708,-3.3709,-3.3661,-3.366,-3.3658,-3.3657,-3.3672,-3.3674,-3.3675,0,0,0,0,0,0,0,0,0,0,0,0,0,-3.3627,-3.3628,-3.3694,-3.3694,-3.3694,-3.3708,-3.3708,-3.3709,-3.3661,-3.366,-3.3658,-3.3656,-3.3671,-3.3673,-3.3675,0,0,0,0,0,0,0,0,0,0,0,0,0,-3.365,-3.3629,-3.3694,-3.3672,-3.3671,-3.3708,-3.3708,-3.3709,-3.3662,-3.366,-3.3658,-3.3656,-3.3671,-3.3673,-3.3676,-3.3735,0,0,-3.3684,-3.3685,0,0,0,0,0,0,0,0,-3.3649,-3.3653,-3.3675,-3.3674,-3.3672,-3.3681,-3.369,-3.3717,-3.3662,-3.3665,-3.3657,-3.3654,-3.3677,-3.3679,-3.3686,-3.3735,-3.3736,-3.3684,-3.3685,-3.3687,-3.3687,0,0,0,0,0,0,0,-3.3647,-3.3652,-3.3699,-3.3676,-3.3674,-3.3662,-3.3663,-3.3695,-3.3683,-3.3665,-3.3661,-3.3664,-3.3675,-3.3684,-3.3686,-3.3736,-3.3684,-3.3686,-3.3688,-3.3689,-3.3835,-3.3838,0,0,0,0,0,0,-3.3648,-3.3651,-3.3699,-3.37,-3.3655,-3.3665,-3.3666,-3.368,-3.3682,-3.3681,-3.3666,-3.3661,-3.368,-3.3683,-3.3686,-3.3755,-3.3687,-3.3689,-3.369,-3.3833,-3.3836,-3.3838,0,0,0,0,0,0,-3.3647,-3.3653,-3.3698,-3.3674,-3.3679,-3.3669,-3.3685,-3.3682,-3.369,-3.3683,-3.368,-3.3676,-3.3679,-3.3683,-3.3723,-3.3755,-3.369,-3.3692,-3.383,-3.3834,-3.3837,-3.3893,0,0,0,0,0,0,-3.3645,-3.3653,-3.3675,-3.3675,-3.3681,-3.3735,-3.3687,-3.3683,-3.3694,-3.3689,-3.3692,-3.3691,-3.3677,-3.3719,-3.3726,-3.3757,-3.3695,-3.3827,-3.3832,-3.3836,-3.3889,-3.3898,-3.3907,0,0,0,0,0,-3.3643,-3.369,-3.3676,-3.3682,-3.3708,-3.3737,-3.374,-3.3723,-3.3697,-3.3719,-3.3715,-3.369,-3.3751,-3.3724,-3.3731,-3.3763,-3.3825,-3.3831,-3.3836,-3.3885,-3.3896,-3.3907,0,0,0,0,0,0,-3.3693,-3.369,-3.3674,-3.3722,-3.373,-3.3729,-3.3755,-3.3736,-3.3752,-3.3746,-3.3726,-3.3727,-3.3771,-3.3772,-3.3741,-3.3821,-3.3784,-3.379,-3.3818,-3.383,-3.3839,-3.3837,-3.3697,0,0,0,0,0,-3.371,-3.3733,-3.3729,-3.3772,-3.3777,-3.3766,-3.3778,-3.3765,-3.3772,-3.3775,-3.3774,-3.3782,-3.3803,-3.3817,-3.3835,-3.3889,-3.3889,-3.3916,-3.3925,-3.3932,-3.3938,-3.3966,-3.3978,-3.3856,-3.3856,-3.3856,0,0,-3.3744,-3.3746,-3.3761,-3.3782,-3.3787,-3.3812,-3.3769,-3.3797,-3.3815,-3.3779,-3.3817,-3.3817,-3.3825,-3.3872,-3.3893,-3.3874,-3.3972,-3.3939,-3.3945,-3.3946,-3.3973,-3.3985,-3.3995,-3.3859,-3.3859,-3.3858,0,0,-3.382,-3.3823,-3.3859,-3.3865,-3.3873,-3.3865,-3.3874,-3.3876,-3.3874,-3.3912,-3.3886,-3.3908,-3.3944,-3.3951,-3.3959,-3.4039,-3.4017,-3.4046,-3.4093,-3.4121,-3.4131,-3.4139,-3.4167,-3.4177,-3.4052,-3.4052,-3.4052,0,-3.3861,-3.3898,-3.388,-3.391,-3.3921,-3.389,-3.3927,-3.3933,-3.3947,-3.3954,-3.3933,-3.3979,-3.3982,-3.4031,-3.405,-3.4058,-3.4068,-3.4044,-3.4131,-3.4139,-3.4147,-3.4173,-3.4184,-3.4056,-3.4055,-3.4055,-3.4055,0,-3.3949,-3.3974,-3.4003,-3.4016,-3.403,-3.4064,-3.4052,-3.4068,-3.4055,-3.405,-3.4089,-3.4092,-3.4111,-3.4122,-3.4109,-3.4169,-3.4157,-3.4134,-3.4096,-3.4162,-3.4186,-3.4196,-3.406,-3.4059,-3.4058,-3.4057,0,0,-3.4053,-3.4058,-3.4069,-3.4075,-3.4082,-3.4102,-3.4135,-3.4153,-3.4167,-3.4179,-3.4205,-3.4238,-3.4216,-3.4226,-3.4214,-3.4239,-3.4302,-3.4212,-3.4212,-3.4228,-3.4368,-3.4384,-3.4396,-3.4288,-3.429,-3.4291,-3.4367,0,-3.4126,-3.4181,-3.4168,-3.4222,-3.4246,-3.4219,-3.4247,-3.4255,-3.4252,-3.4272,-3.4269,-3.4292,-3.4262,-3.4268,-3.4292,-3.4289,-3.4329,-3.4283,-3.4312,-3.4313,-3.4309,-3.4409,-3.4426,-3.4497,-3.4376,-3.4378,-3.4379,0,-3.4219,-3.4233,-3.429,-3.4294,-3.4304,-3.4329,-3.4346,-3.4366,-3.4374,-3.437,-3.4382,-3.4365,-3.4398,-3.4361,-3.4406,-3.4375,-3.4387,-3.4388,-3.439,-3.439,-3.4349,-3.4411,-3.4519,-3.4529,-3.4394,-3.4393,-3.4392,0,-3.4288,-3.4323,-3.4361,-3.4367,-3.4373,-3.4392,-3.4395,-3.4402,-3.4414,-3.4429,-3.4437,-3.4456,-3.4466,-3.4481,-3.447,-3.4445,-3.4517,-3.4479,-3.4514,-3.4515,-3.4529,-3.4528,-3.4639,-3.4539,-3.4539,-3.4539,-3.4539,0,-3.437,-3.4406,-3.4392,-3.4416,-3.4455,-3.444,-3.448,-3.448,-3.4487,-3.451,-3.4489,-3.4511,-3.4496,-3.4518,-3.451,-3.4548,-3.4553,-3.4551,-3.4548,-3.4552,-3.4552,-3.4558,-3.4552,-3.4542,-3.4541,-3.4541,-3.454,0,-3.4453,-3.4446,-3.4486,-3.4489,-3.449,-3.4519,-3.4522,-3.4544,-3.454,-3.457,-3.4577,-3.4571,-3.4595,-3.4587,-3.4613,-3.4607,-3.4656,-3.4647,-3.4653,-3.465,-3.4685,-3.4682,-3.4803,-3.4817,-3.4709,-3.4711,-3.4711,0,-3.4506,-3.4532,-3.4538,-3.4552,-3.4557,-3.4581,-3.4593,-3.458,-3.4595,-3.4608,-3.4628,-3.4651,-3.4668,-3.4709,-3.4707,-3.4727,-3.4718,-3.4759,-3.4721,-3.4724,-3.4718,-3.4716,-3.4718,-3.4766,-3.4768,-3.4769,-3.477,0,-3.4599,-3.4594,-3.4613,-3.4631,-3.4647,-3.4661,-3.4673,-3.4686,-3.4674,-3.4691,-3.4716,-3.473,-3.4757,-3.478,-3.4798,-3.4802,-3.4784,-3.4782,-3.4791,-3.4794,-3.4796,-3.4795,-3.4672,-3.4779,-3.4778,-3.4777,-3.4777,-3.4776,-3.4667,-3.469,-3.4698,-3.472,-3.4728,-3.474,-3.4761,-3.476,-3.4781,-3.4801,-3.4793,-3.4822,-3.4831,-3.4854,-3.4861,-3.4883,-3.4867,-3.488,-3.4883,-3.4887,-3.4891,-3.4794,-3.4887,-3.4886,-3.4886,-3.4886,-3.4886,0,-3.4758,-3.4762,-3.4783,-3.48,-3.4818,-3.4801,-3.4813,-3.4829,-3.4855,-3.4865,-3.4883,-3.4912,-3.4934,-3.4935,-3.4956,-3.4974,-3.4966,-3.498,-3.4978,-3.4979,-3.4904,-3.4894,-3.4986,-3.4986,-3.4986,-3.4986,-3.4986,-3.4986,-3.4807,-3.4845,-3.4841,-3.4883,-3.4887,-3.4914,-3.4923,-3.4934,-3.4942,-3.4976,-3.4994,-3.4995,-3.5001,-3.5023,-3.5043,-3.5043,-3.5051,-3.5068,-3.5064,-3.4994,-3.4984,-3.4974,-3.4964,-3.507,-3.507,-3.5137,-3.5137,-3.5138]},{"header":{"parameterUnit":"m.s-1","parameterCategory":1,"la1":30.2991,"la2":30.254,"lo1":-89.0895,"lo2":-89.0444,"dy":0.0017,"dx":0.0017,"nx":28,"ny":28,"refTime":"2024-05-21T09:00:00:Z","depth":0,"parameterNumber":3,"parameterNumberName":"V-component_of_WINDS"},"data":[0,0,0,0,0,0,0,0,0,0,0,0,0,0,0,0,0,0,0,0,0,0,0,0,0,0,0,0,0,0,0,0,0,0,0,0,0,0,0,0,0,0,0,0,0,0,0,0,0,0,0,0,0,0,0,0,0,0,4.0651,4.0652,0,4.0725,4.0726,4.0726,4.0713,4.0712,4.0711,4.0709,4.0782,4.0785,4.0788,0,0,0,0,0,0,0,0,0,0,0,0,0,4.0495,4.0498,4.0651,4.0652,4.0653,4.0725,4.0726,4.0727,4.0714,4.0712,4.071,4.0709,4.0781,4.0785,4.0788,0,0,0,0,0,0,0,0,0,0,0,0,0,4.0565,4.0499,4.0651,4.0655,4.0656,4.0724,4.0726,4.0727,4.0714,4.0712,4.071,4.0708,4.078,4.0784,4.0789,4.0857,0,0,4.0803,4.0805,0,0,0,0,0,0,0,0,4.0561,4.0571,4.0653,4.0655,4.0656,4.0708,4.0697,4.077,4.0714,4.0692,4.0709,4.0707,4.0759,4.0765,4.0783,4.086,4.0863,4.0804,4.0807,4.0809,4.081,0,0,0,0,0,0,0,4.0557,4.0568,4.068,4.0654,4.0656,4.0652,4.066,4.0711,4.0735,4.0694,4.0693,4.0702,4.0759,4.0779,4.0785,4.0864,4.0804,4.0808,4.0811,4.0813,4.1002,4.1004,0,0,0,0,0,0,4.0551,4.0564,4.0678,4.0682,4.0603,4.0657,4.0665,4.0693,4.0735,4.0739,4.0703,4.0701,4.0771,4.0779,4.0787,4.0871,4.0809,4.0813,4.0816,4.1,4.1003,4.1005,0,0,0,0,0,0,4.0548,4.0561,4.0675,4.0623,4.0637,4.0661,4.0693,4.0696,4.0715,4.0742,4.0746,4.0719,4.077,4.078,4.084,4.0873,4.0815,4.0819,4.0997,4.1001,4.1004,4.1037,0,0,0,0,0,0,4.0543,4.056,4.0587,4.0624,4.064,4.0727,4.0695,4.0698,4.0724,4.0721,4.0758,4.0762,4.0769,4.0833,4.0845,4.0878,4.0823,4.0995,4.0999,4.1003,4.1033,4.1041,4.1048,0,0,0,0,0,4.0538,4.0592,4.0588,4.0602,4.0674,4.0729,4.0738,4.0747,4.0726,4.0753,4.0771,4.0761,4.0867,4.0839,4.0852,4.0888,4.0993,4.0998,4.1003,4.103,4.104,4.1048,0,0,0,0,0,0,4.0557,4.0597,4.0593,4.0661,4.0692,4.0727,4.0761,4.0757,4.0793,4.0789,4.0797,4.0805,4.0866,4.0882,4.0851,4.0956,4.0927,4.0935,4.0943,4.0953,4.096,4.0955,4.0827,0,0,0,0,0,4.057,4.0612,4.0644,4.0701,4.0717,4.0737,4.0761,4.0765,4.0796,4.0809,4.0831,4.0861,4.0902,4.0928,4.0966,4.1035,4.1044,4.1066,4.1073,4.1079,4.1086,4.1125,4.1136,4.1022,4.1021,4.1021,0,0,4.0595,4.0622,4.0649,4.0706,4.073,4.0774,4.0747,4.0794,4.0826,4.0816,4.0874,4.0891,4.0925,4.0991,4.102,4.1006,4.112,4.1086,4.109,4.1094,4.1131,4.1142,4.1152,4.1025,4.1024,4.1024,0,0,4.0665,4.0689,4.074,4.0766,4.0803,4.0816,4.0828,4.0864,4.0875,4.0934,4.0928,4.0965,4.1034,4.106,4.1081,4.1161,4.1154,4.1173,4.1212,4.125,4.1259,4.1267,4.1296,4.1307,4.118,4.118,4.118,0,4.0692,4.0758,4.0767,4.0815,4.0841,4.0834,4.0886,4.0909,4.0957,4.0975,4.0958,4.1046,4.1068,4.114,4.116,4.1177,4.1191,4.117,4.1257,4.1265,4.1273,4.1301,4.1312,4.1182,4.1182,4.1182,4.1182,0,4.079,4.0836,4.0872,4.0921,4.095,4.0999,4.1015,4.1044,4.1045,4.1059,4.1119,4.1146,4.1191,4.1208,4.1208,4.1279,4.127,4.1255,4.1226,4.1286,4.1313,4.1323,4.1185,4.1185,4.1184,4.1183,0,0,4.0875,4.0928,4.0941,4.0963,4.1004,4.104,4.1088,4.1133,4.1158,4.1191,4.1233,4.1291,4.1279,4.1304,4.1307,4.134,4.1403,4.1322,4.1323,4.1337,4.1484,4.1496,4.1508,4.1398,4.14,4.1402,4.1481,0,4.0949,4.1037,4.1047,4.1125,4.1168,4.1162,4.1205,4.1235,4.1249,4.1287,4.1302,4.1344,4.1324,4.1339,4.1371,4.1389,4.1433,4.1383,4.1437,4.1439,4.143,4.1522,4.1534,4.1608,4.1492,4.1494,4.1495,0,4.1048,4.1086,4.1169,4.1205,4.1223,4.1262,4.1304,4.134,4.1373,4.1382,4.141,4.141,4.146,4.1428,4.1497,4.1463,4.1485,4.1497,4.15,4.1507,4.1471,4.1531,4.1631,4.1643,4.1511,4.151,4.1509,0,4.1103,4.1174,4.1233,4.1252,4.1296,4.1323,4.1342,4.1374,4.14,4.1437,4.1454,4.1495,4.1518,4.1549,4.156,4.1536,4.1629,4.1598,4.1637,4.1637,4.1658,4.1657,4.1764,4.1671,4.167,4.167,4.167,0,4.1186,4.1237,4.1259,4.1295,4.1353,4.1362,4.1419,4.1436,4.1464,4.1504,4.1501,4.1538,4.1549,4.1588,4.1596,4.1653,4.1662,4.167,4.1672,4.1672,4.1671,4.1687,4.1683,4.1673,4.1673,4.1672,4.1671,0,4.1257,4.1274,4.1338,4.1375,4.1385,4.1426,4.1456,4.1491,4.1505,4.1555,4.1567,4.1589,4.1635,4.1648,4.1702,4.1708,4.1775,4.1771,4.1764,4.1765,4.1804,4.18,4.1926,4.1944,4.1837,4.1838,4.1839,0,4.131,4.135,4.139,4.1417,4.1438,4.1481,4.1509,4.1519,4.1548,4.1589,4.162,4.1665,4.1702,4.1775,4.1795,4.1836,4.1835,4.1876,4.1841,4.1839,4.1837,4.1835,4.1839,4.1883,4.1884,4.1885,4.1885,0,4.1402,4.1408,4.1449,4.1492,4.1526,4.156,4.1593,4.1615,4.163,4.1662,4.171,4.1739,4.1795,4.184,4.1882,4.1901,4.1896,4.1896,4.1908,4.1908,4.1903,4.1908,4.1784,4.1894,4.1893,4.1892,4.1892,4.1891,4.1467,4.1502,4.1537,4.1582,4.1608,4.1639,4.1675,4.1693,4.1733,4.1781,4.1784,4.1836,4.1868,4.1925,4.1946,4.1986,4.1974,4.199,4.1994,4.1999,4.2003,4.1896,4.1993,4.1993,4.1993,4.1993,4.1992,0,4.156,4.1582,4.1623,4.1671,4.1706,4.1699,4.1735,4.1765,4.1811,4.1842,4.1879,4.1933,4.1977,4.2001,4.2045,4.2072,4.2071,4.2083,4.2082,4.2087,4.201,4.1996,4.2084,4.2084,4.2084,4.2084,4.2084,4.2083,4.1612,4.1673,4.1683,4.1756,4.1777,4.1829,4.185,4.1879,4.1904,4.1966,4.2003,4.2018,4.2046,4.2092,4.2132,4.2137,4.2154,4.2168,4.2173,4.2101,4.2092,4.2083,4.207,4.2171,4.2172,4.2246,4.2247,4.2247]}]]